{"data":{"norad_id":62434,"epoch":"2026-09-21T20:13:56.520192Z","epoch_age_seconds":58469,"freshness":"FRESH","line1":"1 62434U 24251C   26264.84301528  .00021080  00000+0  63330-3 0  9992","line2":"2 62434  53.1594 141.1286 0001505  85.3436 274.7738 15.34399227 98023","mean_motion":15.34399227,"eccentricity":0.0001505,"inclination_deg":53.1594,"raan_deg":141.1286,"arg_perigee_deg":85.3436,"mean_anomaly_deg":274.7738,"bstar":0.0006333,"rev_number":9802,"period_min":93.84780535998,"perigee_km":461.67599092504,"apogee_km":463.7350845289,"semimajor_km":6840.842537727,"source":"CELESTRAK","updated_at":"2026-09-22T09:00:49.580073Z"}}